Location: Newark
(51.0500°N, 12.4500°E)
Time: 15:03:30
(UTC+00:00)

Tiros 1 - Pass Details

Date: 18 February 2020
Orbit: 630 x 664 km, 48.4° (Epoch: 08 April)

Event Time Altitude Azimuth Distance (km) Brightness Sun altitude
Rises 09:27:21 0° 275° (W) 2,922 10.2 22.3°
Reaches altitude 10° 09:31:12 10° 243° (WSW) 2,014 9.7 22.6°
Maximum altitude 09:32:45 12° 223° (SW) 1,909 9.9 22.7°
Drops below altitude 10° 09:34:20 10° 203° (SSW) 2,015 10.3 22.8°
Sets 09:38:12 0° 171° (S) 2,927 11.7 23.1°
